Temperature
3 4 4 4 4 5 4 5 5 5 5 5 4 4 4 4 3 3 3 2 2 2 2 3 3 3 3 3 3 3 3 3 3 3 3 3 3 3 3 3 3 3 3 3
3 4 4 4 4 4 4 5 5 5 4 4 4 4 4 3 3 2 2 2 2 2 2 2 2 3 3 3 3 3 3 3 3 3 3 3 2 2 2 2 3 3 3 3
3 4 4 3 3 3 4 4 4 4 4 4 3 3 3 2 2 2 1 1 1 1 1 2 2 2 2 3 3 2 2 2 2 2 2 2 2 2 2 2 2 2 2 2
3 3 2 4 4 4 3 3 3 3 3 3 3 2 2 2 1 1 1 1 1 1 1 1 1 2 2 2 2 2 2 2 2 2 2 1 1 1 1 1 1 1 2 2
2 3 3 4 3 3 3 3 3 3 3 2 2 2 1 1 1 0 0 0 0 0 1 1 1 1 1 2 1 1 1 1 1 1 1 1 1 1 1 1 1 1 1 1
2 2 3 4 3 3 3 2 3 3 2 2 1 0 0 1 0 0 -0 -0 -0 -0 0 0 1 1 1 1 1 1 1 1 1 1 1 1 1 0 0 0 0 0 0 0
1 2 2 2 2 3 2 2 3 2 2 1 0 0 1 0 0 -0 -1 -1 -1 -0 -0 -0 -0 0 0 0 0 0 0 0 0 0 0 0 0 -0 -0 -0 -0 -0 -0 -0
1 1 2 1 1 1 1 2 2 2 2 1 0 0 -0 -0 -1 -1 -1 -1 -1 -1 -1 -1 -1 -0 -0 -0 -0 -0 -0 -0 -0 -0 -0 -0 -0 -0 -0 -1 -1 -1 -1 -1
1 1 2 2 2 2 2 2 1 1 1 0 -0 -1 -1 -1 -1 -1 -1 -1 -1 -1 -1 -1 -1 -1 -1 -1 -1 -1 -1 -1 -1 -1 -1 -1 -1 -1 -1 -1 -1 -1 -1 -1
0 1 2 2 2 2 1 1 1 0 0 -0 -1 -1 -1 -2 -2 -2 -2 -2 -2 -2 -2 -1 -1 -1 -1 -1 -1 -1 -1 -1 -1 -1 -1 -2 -2 -2 -2 -2 -2 -2 -2 -2
-0 0 1 1 1 1 1 0 0 -0 -0 -1 -1 -2 -2 -2 -2 -2 -2 -2 -2 -2 -2 -2 -2 -2 -2 -2 -2 -2 -2 -2 -2 -2 -2 -2 -2 -2 -2 -2 -2 -3 -3 -3
0 1 1 1 1 1 -0 -0 -0 -1 -1 -1 -2 -2 -2 -2 -2 -2 -2 -2 -3 -3 -3 -3 -2 -2 -2 -2 -2 -2 -3 -3 -3 -3 -3 -3 -3 -3 -3 -3 -3 -3 -3 -3
2 1 1 1 0 -0 -0 -1 -1 -1 -2 -2 -2 -2 -2 -2 -3 -2 -2 -3 -3 -3 -3 -3 -3 -3 -3 -3 -3 -3 -3 -3 -3 -3 -3 -3 -3 -3 -3 -3 -3 -3 -3 -3
1 1 -0 -0 -0 -1 -1 -1 -1 -2 -2 -2 -2 -2 -3 -3 -3 -3 -3 -3 -3 -3 -3 -3 -3 -3 -3 -3 -3 -3 -3 -3 -4 -4 -4 -4 -4 -4 -4 -4 -4 -4 -4 -4
-0 -0 -0 -1 -1 -1 -2 -2 -2 -2 -2 -3 -3 -3 -3 -3 -3 -3 -3 -3 -3 -4 -4 -4 -4 -4 -4 -4 -4 -4 -4 -4 -4 -4 -4 -4 -4 -4 -5 -5 -5 -4 -4 -4
-1 -1 -1 -1 -2 -2 -2 -2 -3 -3 -3 -3 -3 -3 -3 -4 -4 -4 -4 -4 -4 -4 -4 -4 -4 -4 -4 -4 -4 -4 -4 -4 -5 -5 -5 -5 -5 -5 -5 -5 -5 -5 -5 -5
-2 -2 -2 -2 -2 -3 -3 -3 -3 -3 -4 -4 -4 -4 -4 -4 -4 -4 -4 -4 -4 -4 -4 -4 -4 -4 -4 -4 -5 -5 -5 -5 -5 -5 -5 -5 -5 -5 -5 -6 -6 -6 -6 -6
-1 -1 -2 -2 -3 -3 -3 -3 -3 -4 -4 -4 -4 -4 -4 -4 -4 -4 -5 -5 -5 -5 -5 -5 -5 -5 -5 -5 -5 -5 -5 -5 -6 -6 -6 -6 -6 -6 -6 -6 -6 -6 -6 -6
-2 -2 -2 -2 -3 -3 -3 -3 -4 -4 -4 -4 -4 -4 -4 -5 -5 -5 -5 -5 -5 -5 -5 -5 -5 -5 -5 -5 -6 -6 -6 -6 -6 -6 -6 -6 -6 -6 -6 -7 -7 -7 -7 -7
-2 -2 -2 -2 -3 -3 -3 -4 -4 -4 -4 -5 -5 -5 -5 -5 -5 -5 -5 -5 -5 -6 -6 -6 -6 -6 -6 -6 -6 -6 -6 -7 -7 -7 -7 -7 -7 -7 -7 -7 -7 -7 -7 -7
-2 -2 -2 -3 -3 -3 -4 -4 -4 -4 -4 -5 -5 -5 -5 -5 -6 -6 -6 -6 -6 -6 -6 -6 -6 -6 -6 -6 -7 -7 -7 -7 -7 -7 -7 -7 -7 -7 -7 -7 -7 -8 -7 -7
-2 -2 -3 -3 -3 -3 -4 -4 -4 -5 -5 -5 -5 -5 -6 -6 -6 -6 -6 -6 -6 -6 -6 -6 -6 -7 -7 -7 -7 -7 -7 -7 -7 -7 -7 -7 -7 -8 -8 -8 -8 -8 -8 -8
-2 -3 -3 -3 -4 -4 -4 -4 -5 -5 -5 -5 -5 -6 -6 -6 -6 -6 -6 -6 -7 -7 -7 -7 -7 -7 -7 -7 -7 -7 -7 -8 -8 -8 -8 -8 -8 -8 -8 -8 -8 -8 -8 -8
-3 -3 -3 -4 -4 -4 -4 -5 -5 -5 -5 -6 -6 -6 -6 -7 -7 -7 -7 -7 -7 -7 -7 -7 -7 -7 -7 -7 -7 -8 -8 -8 -8 -8 -8 -8 -8 -8 -8 -8 -8 -8 -8 -8
-3 -4 -4 -4 -4 -4 -5 -5 -5 -5 -6 -6 -6 -6 -7 -7 -7 -7 -7 -7 -7 -7 -7 -7 -7 -7 -8 -8 -8 -8 -8 -8 -8 -9 -9 -9 -9 -9 -9 -9 -9 -9 -9 -9
-4 -4 -4 -5 -5 -5 -5 -6 -6 -6 -6 -6 -6 -7 -7 -7 -7 -7 -7 -7 -7 -7 -7 -8 -8 -8 -8 -8 -8 -8 -8 -9 -9 -9 -9 -9 -9 -9 -9 -9 -9 -9 -9 -9
-4 -4 -5 -5 -5 -5 -6 -6 -6 -6 -7 -7 -7 -7 -7 -7 -7 -8 -8 -8 -8 -8 -8 -8 -8 -8 -8 -8 -8 -9 -9 -9 -9 -9 -9 -9 -9 -9 -9 -9 -9 -9 -9 -9
Wind_Speed
7 7 5 5 6 6 6 5 4 4 5 5 3 2 3 3 3 4 4 4 3 3 3 3 2 1 1 1 1 1 1 1 0 0 0 1 1 1 2 2 2 2 1 1
6 6 5 6 7 7 7 6 5 5 6 4 2 3 3 3 3 4 4 4 4 4 4 4 3 2 1 1 1 1 0 0 0 1 1 1 1 1 2 2 2 1 1 2
4 3 4 6 6 6 4 4 4 6 5 2 3 3 3 3 3 3 4 4 4 4 4 4 3 2 0 1 1 1 1 1 0 0 1 1 2 2 2 2 2 1 2 2
2 2 5 5 1 3 5 5 4 3 3 2 3 4 2 2 3 3 4 4 4 3 4 3 2 2 1 1 1 0 0 1 1 1 1 1 1 2 2 2 2 1 2 2
2 4 6 3 1 1 2 5 3 3 3 3 4 4 2 3 4 3 3 3 3 3 3 3 2 2 1 1 1 1 1 1 1 1 1 1 2 2 2 2 2 2 1 2
3 4 5 3 1 1 1 4 2 1 2 2 2 3 4 4 4 4 4 3 2 3 3 3 3 1 1 1 1 1 1 2 1 1 1 1 2 2 2 2 2 2 2 2
5 5 5 1 1 2 2 5 2 1 2 1 2 3 3 3 3 2 3 3 3 3 3 3 3 2 2 2 1 2 1 2 2 1 1 1 1 1 2 2 1 1 2 2
4 5 6 2 3 3 4 1 1 1 1 1 2 2 3 2 2 2 2 3 3 3 3 3 3 2 2 2 2 2 1 2 2 2 1 1 1 1 1 1 1 1 2 2
5 6 3 3 3 2 0 1 2 2 1 0 1 2 2 2 2 2 2 2 2 2 2 3 3 2 2 2 2 2 1 2 2 2 1 1 1 1 1 1 1 1 1 2
5 6 4 4 3 2 1 2 2 2 1 1 2 2 2 2 2 2 1 2 2 2 2 3 3 2 2 2 2 2 1 2 2 2 2 2 1 1 1 1 1 1 2 2
6 5 4 5 4 3 2 2 2 2 2 2 2 2 2 2 2 2 1 1 1 1 2 2 2 2 2 2 2 2 2 2 2 2 2 2 2 1 1 1 2 2 2 2
7 5 4 4 3 2 3 3 3 2 3 2 2 3 2 2 2 1 1 1 2 2 2 2 3 2 2 2 2 2 2 2 2 2 2 2 2 3 3 3 4 4 4 4
4 2 2 3 2 3 3 3 3 3 3 3 2 2 2 2 1 1 1 1 2 2 2 2 2 3 2 2 2 2 2 2 2 2 2 2 2 2 3 4 4 4 4 5
2 1 3 3 3 2 2 2 2 2 2 2 2 1 1 1 1 1 2 2 2 2 2 2 2 3 3 2 2 2 2 2 2 2 2 2 2 2 2 3 3 3 4 5
3 3 3 2 1 1 1 1 1 2 2 2 1 1 1 2 2 2 2 1 2 2 2 2 2 3 3 2 2 2 2 2 1 1 2 2 2 2 2 3 3 3 3 4
3 2 3 3 3 2 2 2 3 3 3 2 2 2 2 2 2 2 2 1 1 2 3 2 3 3 2 2 2 2 2 3 3 2 2 2 2 2 2 2 3 3 3 3
4 4 4 4 4 4 4 4 4 3 3 3 3 2 1 1 2 3 2 2 2 3 3 3 3 2 2 2 2 2 2 2 3 2 2 2 2 2 2 2 3 3 3 4
5 4 4 4 4 4 3 3 3 3 3 3 2 2 2 3 4 4 3 2 2 3 3 3 2 1 1 2 2 2 2 2 1 2 2 2 2 2 2 2 3 3 3 4
2 2 2 3 3 3 3 3 3 3 2 2 3 3 4 4 4 3 2 2 3 4 3 2 3 1 2 2 3 2 2 2 2 2 2 3 3 2 2 2 3 3 3 3
2 2 2 2 2 2 2 2 2 2 2 2 2 3 3 3 3 3 3 3 4 3 2 2 2 2 3 3 3 2 2 2 2 2 2 2 2 2 2 3 3 3 3 3
3 3 3 2 2 2 3 2 2 3 2 3 4 4 4 4 3 3 3 4 4 3 2 3 2 2 2 2 3 2 2 2 2 2 2 2 2 2 3 3 3 3 3 3
3 3 3 3 2 2 2 2 2 3 3 3 4 4 3 3 3 3 4 4 3 3 2 2 2 3 3 3 2 2 2 2 2 2 2 2 2 3 3 3 3 3 3 3
3 3 3 3 3 2 2 2 3 3 4 4 4 4 4 4 3 3 4 3 2 3 2 2 4 5 5 2 2 2 2 2 3 2 2 2 3 3 3 3 3 3 3 3
2 3 3 2 1 2 3 3 3 3 3 4 4 4 4 3 3 3 3 3 4 4 3 4 5 5 5 2 2 2 2 2 3 3 3 3 3 3 3 3 3 3 3 4
3 3 2 3 3 3 3 3 2 3 3 3 3 4 3 3 3 3 2 3 4 4 2 4 5 5 3 2 2 2 2 3 3 3 3 3 3 3 3 3 3 3 3 3
3 3 3 4 3 3 2 2 2 2 2 2 2 2 2 2 2 2 2 3 4 4 3 2 3 3 2 2 2 3 3 3 4 3 3 3 3 3 3 3 4 3 4 4
3 3 2 2 3 3 3 2 3 3 3 3 3 2 2 2 2 2 3 2 2 2 2 2 2 2 2 2 3 3 3 3 3 3 3 3 3 3 4 4 4 4 4 4
Wind_Direction
273 281 279 274 266 255 250 261 262 266 260 271 305 341 355 8 1 3 0 359 4 356 351 355 5 28 52 60 61 84 109 119 120 9 13 337 326 325 323 316 309 290 297 282
276 265 265 283 276 256 256 263 266 271 279 297 355 6 354 354 359 352 348 348 352 355 351 350 350 356 23 37 36 28 92 158 98 39 14 346 323 317 317 312 308 304 292 282
272 289 295 269 243 228 237 243 248 258 268 312 340 339 328 336 352 343 338 341 347 348 346 340 337 342 3 60 38 7 4 6 33 358 328 328 332 332 311 302 303 291 288 293
275 314 255 245 233 202 220 247 260 280 295 306 325 325 334 12 12 347 338 339 337 338 337 333 340 351 18 57 85 329 329 323 327 324 316 318 318 311 310 310 301 290 290 290
248 260 265 256 219 153 214 264 248 260 300 335 356 342 326 10 18 354 342 339 331 329 325 333 347 354 20 35 41 18 327 322 319 323 325 318 311 308 313 319 308 302 294 283
243 260 258 262 115 68 95 270 269 258 281 314 352 310 290 341 5 357 346 346 348 350 349 351 348 3 31 34 31 338 319 317 319 313 292 288 294 307 315 320 311 311 303 288
241 249 261 237 138 99 176 255 305 267 247 248 260 265 300 347 359 355 347 356 3 1 357 343 346 19 36 30 352 330 337 330 326 319 302 296 306 314 318 321 322 320 315 308
214 232 251 149 142 196 230 311 338 316 281 255 291 317 340 352 344 351 359 0 3 4 355 351 1 24 22 350 335 347 348 329 324 328 333 339 325 324 322 323 319 314 323 324
211 226 256 184 212 237 308 292 306 318 329 207 273 288 314 326 328 345 360 347 353 358 352 354 2 11 354 330 341 351 349 331 327 331 336 333 327 324 321 320 311 310 319 317
257 253 250 244 243 265 306 288 303 320 310 272 264 272 291 304 313 324 337 333 336 345 348 344 350 355 343 340 345 353 346 331 334 343 342 350 353 340 329 325 320 312 307 306
254 257 261 242 228 242 266 274 287 302 284 261 255 257 256 277 290 299 319 321 324 319 320 324 341 352 354 358 2 356 348 340 342 349 342 342 338 333 324 307 289 290 281 282
236 229 223 246 223 212 232 249 255 265 271 266 250 249 252 267 277 293 302 317 329 325 324 329 343 349 353 0 360 353 343 341 340 338 334 334 333 340 332 311 308 309 307 301
240 265 257 255 237 210 225 240 245 241 240 252 254 248 251 263 276 291 301 320 318 317 319 323 331 335 346 357 357 346 328 326 327 327 324 319 319 324 330 340 333 318 314 317
210 238 264 251 254 235 226 228 224 238 240 231 235 243 238 251 279 277 280 292 304 309 311 311 316 322 335 343 335 320 315 306 309 305 307 307 308 307 308 313 322 328 328 324
226 229 244 266 250 241 217 199 222 236 233 226 204 208 211 236 257 271 282 297 307 302 301 306 307 309 326 328 318 301 298 296 297 301 300 300 305 308 308 307 307 314 327 332
233 236 232 234 237 236 226 219 226 235 230 224 222 227 229 237 256 270 271 256 264 277 288 291 290 301 319 319 306 297 289 290 300 297 299 306 307 304 304 305 308 311 316 323
196 222 224 227 231 234 226 222 222 230 228 224 228 227 229 241 258 264 268 260 256 263 270 271 277 294 304 295 278 279 280 285 292 298 290 292 292 293 294 297 300 304 307 311
212 218 213 215 221 228 231 224 222 225 224 218 209 211 223 231 243 255 262 271 283 286 276 267 274 291 279 278 276 275 274 269 266 268 274 276 281 283 285 289 294 300 308 314
208 216 228 229 225 217 218 221 221 224 220 200 203 223 235 240 244 249 250 250 259 272 276 264 284 291 273 275 286 267 266 265 263 267 269 277 285 286 285 287 290 295 300 304
202 211 220 227 219 210 220 222 210 218 217 203 214 233 245 249 245 245 245 248 249 250 256 263 265 263 265 264 273 258 260 263 263 266 270 272 277 282 283 287 290 294 299 301
207 213 217 218 223 221 219 215 208 225 228 214 221 233 243 250 243 235 240 262 267 247 250 265 264 263 264 266 270 256 254 259 257 254 256 260 271 278 284 289 292 296 298 302
202 208 216 216 218 236 233 212 208 222 229 232 235 236 240 249 246 247 245 246 257 252 247 245 254 262 267 278 266 259 262 265 263 259 258 262 267 272 277 282 284 290 295 298
206 208 212 214 215 229 243 226 218 219 228 234 234 232 236 244 240 241 267 257 251 260 261 250 262 270 278 277 255 254 260 264 263 258 255 257 263 268 272 277 281 283 285 290
211 212 214 209 188 216 244 247 231 226 228 236 235 230 230 245 259 248 255 268 266 270 261 261 269 275 280 271 250 246 249 252 256 256 254 255 256 261 267 272 277 280 282 287
207 210 206 198 213 227 232 234 233 235 234 242 242 235 227 228 241 255 252 256 263 272 266 268 272 277 278 262 249 247 247 247 249 253 251 253 253 256 260 265 269 275 278 281
207 209 214 214 216 220 217 215 230 235 231 244 251 242 242 245 244 249 247 244 249 260 260 257 260 267 257 251 251 251 251 262 268 264 255 254 254 256 257 259 264 267 271 277
205 209 213 227 225 214 212 214 224 233 228 229 247 247 241 242 243 245 247 250 252 255 254 256 255 253 252 250 252 253 249 247 248 251 251 251 251 253 254 255 259 265 271 276
Height
1509 1505 1504 1504 1503 1502 1502 1500 1500 1496 1494 1492 1492 1492 1492 1491 1490 1489 1488 1487 1486 1485 1484 1483 1482 1482 1482 1482 1482 1483 1483 1483 1483 1484 1484 1484 1484 1484 1484 1484 1484 1484 1484 1484
1509 1504 1503 1504 1501 1499 1499 1497 1496 1494 1494 1491 1491 1491 1491 1490 1489 1489 1487 1486 1485 1484 1483 1482 1481 1481 1480 1480 1480 1481 1481 1481 1481 1481 1482 1482 1482 1482 1482 1481 1481 1481 1481 1481
1508 1503 1503 1503 1497 1497 1496 1494 1494 1494 1492 1490 1490 1489 1489 1488 1488 1487 1486 1485 1484 1483 1482 1481 1480 1479 1479 1479 1479 1479 1479 1479 1479 1480 1479 1479 1479 1479 1479 1479 1478 1478 1478 1478
1509 1508 1509 1496 1490 1490 1492 1492 1492 1490 1489 1488 1489 1489 1488 1487 1486 1486 1485 1484 1482 1481 1480 1479 1479 1478 1477 1477 1477 1477 1477 1477 1477 1477 1477 1477 1477 1477 1476 1476 1476 1475 1475 1475
1509 1506 1499 1493 1490 1490 1492 1491 1489 1488 1488 1488 1488 1487 1487 1486 1485 1485 1484 1482 1481 1480 1479 1478 1477 1476 1476 1475 1475 1475 1475 1475 1475 1475 1475 1475 1475 1475 1474 1474 1473 1473 1472 1472
1507 1505 1500 1491 1489 1488 1491 1492 1486 1486 1486 1487 1487 1488 1486 1484 1483 1482 1482 1480 1479 1478 1477 1476 1475 1475 1474 1474 1473 1473 1473 1473 1473 1473 1473 1473 1473 1472 1472 1472 1471 1470 1470 1469
1507 1504 1496 1490 1489 1489 1495 1490 1485 1484 1484 1485 1486 1486 1484 1482 1481 1480 1479 1478 1477 1476 1475 1474 1474 1473 1472 1472 1472 1472 1471 1471 1471 1471 1471 1471 1470 1470 1470 1469 1468 1468 1467 1467
1503 1502 1497 1489 1489 1490 1488 1484 1483 1483 1483 1483 1483 1482 1481 1480 1479 1478 1477 1476 1475 1474 1473 1473 1472 1472 1471 1470 1470 1470 1469 1469 1469 1469 1468 1468 1468 1468 1467 1467 1466 1466 1465 1464
1497 1494 1487 1485 1484 1484 1483 1483 1482 1481 1481 1481 1480 1479 1479 1478 1477 1476 1475 1474 1474 1473 1472 1471 1471 1470 1469 1469 1468 1468 1467 1467 1467 1466 1466 1466 1465 1465 1465 1464 1464 1463 1463 1462
1490 1485 1484 1483 1482 1482 1482 1481 1480 1480 1479 1478 1478 1477 1476 1476 1475 1474 1474 1473 1472 1471 1470 1469 1469 1469 1468 1467 1467 1466 1465 1465 1464 1464 1463 1463 1463 1463 1462 1462 1461 1461 1460 1460
1486 1482 1480 1479 1479 1479 1478 1478 1478 1477 1476 1475 1475 1474 1474 1473 1472 1472 1471 1470 1470 1469 1468 1467 1467 1466 1466 1466 1465 1464 1463 1463 1462 1462 1461 1461 1461 1460 1460 1460 1460 1459 1458 1457
1479 1476 1476 1475 1475 1475 1475 1474 1474 1473 1473 1472 1472 1471 1471 1470 1470 1469 1469 1468 1467 1467 1466 1465 1465 1464 1464 1464 1463 1462 1461 1461 1460 1460 1459 1459 1458 1458 1458 1458 1457 1456 1456 1455
1473 1472 1472 1471 1471 1471 1471 1471 1471 1470 1470 1469 1469 1469 1468 1468 1467 1466 1466 1466 1465 1464 1464 1463 1463 1462 1462 1461 1461 1460 1459 1458 1458 1457 1457 1456 1456 1455 1454 1454 1454 1453 1453 1452
1469 1469 1468 1468 1468 1468 1468 1467 1467 1467 1467 1467 1466 1466 1466 1465 1465 1464 1464 1463 1463 1462 1462 1461 1460 1460 1460 1459 1458 1458 1457 1457 1456 1455 1455 1454 1454 1453 1452 1451 1451 1450 1450 1449
1466 1466 1465 1465 1464 1464 1464 1464 1463 1463 1463 1463 1463 1463 1463 1462 1462 1462 1462 1461 1461 1460 1459 1459 1458 1458 1457 1456 1456 1455 1455 1454 1454 1453 1453 1452 1451 1451 1450 1449 1449 1448 1447 1446
1462 1462 1462 1461 1461 1461 1461 1461 1460 1460 1460 1460 1460 1460 1460 1460 1459 1459 1459 1459 1458 1457 1457 1456 1455 1455 1454 1454 1453 1452 1452 1452 1452 1451 1450 1450 1449 1448 1448 1447 1446 1445 1444 1443
1458 1457 1457 1458 1458 1458 1458 1458 1458 1457 1457 1457 1457 1457 1457 1457 1456 1456 1456 1456 1455 1455 1454 1453 1453 1452 1451 1451 1450 1450 1449 1449 1449 1448 1448 1447 1447 1446 1445 1445 1444 1443 1442 1441
1454 1454 1454 1454 1455 1455 1455 1455 1455 1455 1455 1455 1455 1454 1454 1454 1453 1453 1453 1452 1452 1452 1451 1450 1450 1449 1448 1448 1447 1446 1446 1446 1445 1445 1445 1444 1444 1443 1443 1442 1441 1440 1439 1439
1451 1452 1452 1452 1452 1452 1452 1452 1452 1452 1452 1452 1452 1451 1451 1451 1450 1450 1449 1449 1448 1448 1447 1447 1446 1446 1445 1444 1444 1443 1443 1442 1442 1442 1442 1441 1441 1440 1440 1439 1438 1438 1437 1436
1449 1449 1449 1449 1449 1449 1449 1449 1449 1449 1449 1449 1449 1448 1448 1447 1447 1447 1446 1445 1445 1445 1444 1444 1443 1442 1442 1441 1440 1440 1439 1439 1439 1439 1439 1438 1438 1438 1437 1436 1436 1435 1434 1433
1446 1446 1446 1446 1446 1446 1447 1446 1446 1446 1446 1446 1445 1445 1444 1444 1444 1443 1442 1442 1442 1442 1441 1440 1440 1439 1438 1438 1437 1437 1436 1436 1436 1436 1436 1435 1435 1435 1434 1433 1433 1432 1431 1430
1443 1444 1444 1444 1444 1443 1443 1443 1443 1443 1443 1442 1442 1442 1441 1441 1440 1440 1439 1439 1439 1438 1438 1437 1436 1436 1435 1435 1434 1434 1434 1433 1433 1433 1433 1432 1432 1432 1431 1431 1430 1429 1429 1428
1441 1441 1441 1441 1441 1440 1440 1440 1440 1439 1439 1439 1438 1438 1438 1438 1437 1437 1436 1436 1436 1435 1434 1434 1433 1433 1432 1432 1431 1431 1431 1430 1430 1430 1430 1429 1429 1429 1428 1428 1427 1427 1426 1425
1438 1438 1438 1438 1438 1437 1437 1437 1437 1436 1435 1435 1435 1435 1435 1434 1434 1433 1433 1432 1432 1431 1431 1431 1430 1430 1429 1428 1428 1428 1427 1427 1427 1427 1427 1426 1426 1425 1425 1424 1424 1423 1423 1422
1435 1435 1435 1435 1434 1434 1434 1433 1433 1432 1432 1432 1431 1431 1431 1431 1430 1430 1429 1429 1429 1428 1427 1427 1427 1426 1426 1425 1425 1424 1424 1424 1424 1424 1423 1423 1423 1422 1422 1421 1421 1420 1420 1419
1431 1432 1432 1432 1431 1431 1430 1430 1429 1429 1429 1428 1428 1428 1428 1427 1427 1426 1426 1426 1425 1424 1424 1423 1423 1422 1422 1422 1421 1421 1420 1420 1420 1420 1420 1419 1419 1419 1418 1418 1418 1417 1417 1416
1428 1428 1428 1428 1428 1427 1427 1427 1426 1426 1425 1425 1425 1425 1424 1424 1423 1423 1422 1422 1421 1421 1420 1420 1419 1419 1418 1418 1417 1417 1417 1417 1416 1416 1416 1416 1415 1415 1415 1414 1414 1414 1413 1413